Location: Unspecified
(0.0000°N, 0.0000°E)
Time: 04:58:46
(UTC+00:00)

Vanguard 3 - Pass Details

Date: 17 April 2021
Orbit: 507 x 3262 km, 33.4° (Epoch: 17 May)

Event Time Altitude Azimuth Distance (km) Brightness Sun altitude
Rises 18:56:05 0° 223° (SW) 7,168 12.4 -13.9°
Reaches altitude 10° 19:02:28 10° 212° (SSW) 5,939 11.8 -15.5°
Maximum altitude 19:16:25 28° 160° (SSE) 3,725 10.2 -18.9°
Enters shadow 19:21:44 22° 127° (SE) 3,635 9.9 -20.2°
